Location: Sternwarte ZA, Rosenfeld-Brittheim
(48.2889°N, 8.6789°E)
Time: 19:56:52

ISS - Pass Details

Date: 19 March 2018
Orbit: 403 x 406 km, 51.6° (Epoch: 23 March)

Event Time Altitude Azimuth Distance (km) Brightness Sun altitude
Exits shadow 04:15:49 19° 135° (SE) 1,028 -1.6 -22.5°
Drops below altitude 10° 04:16:55 10° 130° (SE) 1,460 -0.7 -22.4°
Sets 04:19:01 0° 126° (SE) 2,316 0.4 -22.1°
